Location: Newark
(49.2191°N, 12.6671°E)
Time: 04:38:14
(UTC+00:00)

N. Korean satellite - Visible Passes

Search period start: 07 December 2019 00:00
Search period end: 17 December 2019 00:00
Orbit: 456 x 506 km, 97.2° (Epoch: 06 December)

Date Brightness Start Highest point End Pass type
(mag) Time Alt. Az. Time Alt. Az. Time Alt. Az.
07 Dec 7.9 04:44:04 10° NNE 04:47:30 40° E 04:50:49 10° S visible
07 Dec 9.2 16:56:59 10° SSW 17:00:02 24° W 17:03:05 10° NW visible
08 Dec 9.2 04:19:06 10° NE 04:21:54 21° E 04:24:39 10° SE visible
08 Dec 7.3 05:52:10 10° N 05:55:22 31° WNW 05:58:29 10° SW visible
08 Dec 7.9 16:30:55 10° S 16:34:29 44° W 16:38:03 10° NNW visible
09 Dec 10.0 03:55:02 10° ENE 03:56:13 11° E 03:57:24 10° ESE visible
09 Dec 6.5 05:26:30 10° N 05:30:02 60° WNW 05:33:29 10° SSW visible
09 Dec 6.7 16:05:18 10° SSE 16:09:01 89° WSW 16:12:44 10° NNW visible
10 Dec 6.9 05:01:03 10° NNE 05:04:36 66° E 05:08:04 10° S visible
10 Dec 9.9 17:14:56 10° SW 17:17:15 16° W 17:19:35 10° NW visible
11 Dec 8.4 04:35:51 10° NNE 04:39:05 32° E 04:42:15 10° SSE visible
11 Dec 7.8 06:09:36 10° NNW 06:12:18 20° WNW 06:14:57 10° WSW visible
11 Dec 8.9 16:48:23 10° SSW 16:51:39 28° W 16:54:53 10° NW visible
12 Dec 9.5 04:11:02 10° NE 04:13:27 17° E 04:15:50 10° SE visible
12 Dec 7.0 05:43:43 10° N 05:47:01 37° WNW 05:50:15 10° SW visible
12 Dec 7.4 16:22:28 10° S 16:26:07 55° W 16:29:44 10° NNW visible
13 Dec 6.3 05:18:06 10° N 05:21:39 76° WNW 05:25:07 10° SSW visible
13 Dec 6.6 15:56:58 10° SSE 16:00:39 74° ENE 16:04:20 10° N visible
13 Dec 10.3 17:34:03 10° W 17:34:30 10° W 17:34:58 10° W visible
14 Dec 7.3 04:52:43 10° NNE 04:56:11 52° E 04:59:34 10° S visible
14 Dec 9.6 17:06:08 10° SW 17:08:49 19° W 17:11:30 10° NW visible
15 Dec 8.8 04:27:37 10° NE 04:30:37 26° E 04:33:35 10° SSE visible
15 Dec 7.6 06:01:04 10° NNW 06:03:57 24° WNW 06:06:48 10° WSW visible
15 Dec 8.4 16:39:49 10° SSW 16:43:13 34° W 16:46:37 10° NNW visible
16 Dec 9.8 04:03:04 10° ENE 04:04:58 14° E 04:06:51 10° ESE visible
16 Dec 6.7 05:35:16 10° N 05:38:39 46° WNW 05:41:57 10° SW visible
16 Dec 7.0 16:14:03 10° S 16:17:42 69° WSW 16:21:22 10° NNW visible
